Time,TemperatureF,DewpointF,PressureIn,WindDirection,WindDirectionDegrees,WindSpeedMPH,WindSpeedGustMPH,Humidity,HourlyPrecipIn,Conditions,Clouds,dailyrainin,SoftwareType,DateUTC
2013-08-13 00:01:00,71.9,67.5,29.71,SW,226,0.0,2.0,86,0.00,,,0.00,VWS V14.01,2013-08-13 04:01:00,
2013-08-13 00:06:00,71.8,67.4,29.71,SSE,165,1.0,2.0,86,0.00,,,0.00,VWS V14.01,2013-08-13 04:06:00,
2013-08-13 00:11:00,72.0,67.6,29.71,SSW,208,0.0,3.0,86,0.00,,,0.00,VWS V14.01,2013-08-13 04:11:00,
2013-08-13 00:16:00,72.2,67.8,29.71,SW,219,1.0,3.0,86,0.00,,,0.00,VWS V14.01,2013-08-13 04:16:00,
2013-08-13 00:21:00,72.1,67.7,29.71,SSE,166,0.0,5.0,86,0.00,,,0.00,VWS V14.01,2013-08-13 04:21:00,
2013-08-13 00:26:00,71.9,67.8,29.71,NNW,335,0.0,7.0,87,0.00,,,0.00,VWS V14.01,2013-08-13 04:26:00,
2013-08-13 00:31:00,71.6,67.5,29.71,SW,224,0.0,7.0,87,0.00,,,0.00,VWS V14.01,2013-08-13 04:31:00,
2013-08-13 00:36:00,71.3,67.6,29.71,North,11,1.0,7.0,88,0.00,,,0.00,VWS V14.01,2013-08-13 04:36:00,
2013-08-13 00:41:00,71.0,67.3,29.71,WSW,243,0.0,7.0,88,0.00,,,0.00,VWS V14.01,2013-08-13 04:41:00,
2013-08-13 00:46:00,70.7,67.3,29.71,NNW,330,0.0,7.0,89,0.00,,,0.00,VWS V14.01,2013-08-13 04:46:00,
2013-08-13 00:51:00,70.4,67.3,29.71,SW,221,0.0,7.0,90,0.00,,,0.00,VWS V14.01,2013-08-13 04:51:00,
2013-08-13 00:56:00,70.1,67.0,29.71,SW,228,0.0,7.0,90,0.00,,,0.00,VWS V14.01,2013-08-13 04:56:00,
2013-08-13 01:01:00,69.8,66.7,29.71,WSW,242,0.0,7.0,90,0.00,,,0.00,VWS V14.01,2013-08-13 05:01:00,
2013-08-13 01:06:00,69.4,66.7,29.72,SW,218,0.0,1.0,91,0.00,,,0.00,VWS V14.01,2013-08-13 05:06:00,
2013-08-13 01:11:00,69.2,66.5,29.72,SW,218,0.0,1.0,91,0.00,,,0.00,VWS V14.01,2013-08-13 05:11:00,
2013-08-13 01:16:00,68.9,66.2,29.71,SSW,205,0.0,1.0,91,0.00,,,0.00,VWS V14.01,2013-08-13 05:16:00,
2013-08-13 01:21:00,68.7,66.0,29.72,SSW,205,0.0,1.0,91,0.00,,,0.00,VWS V14.01,2013-08-13 05:21:00,
2013-08-13 01:26:00,68.4,66.0,29.71,SSW,205,0.0,1.0,92,0.00,,,0.00,VWS V14.01,2013-08-13 05:26:00,
2013-08-13 01:31:00,68.2,65.8,29.71,SSW,205,0.0,1.0,92,0.00,,,0.00,VWS V14.01,2013-08-13 05:31:00,
2013-08-13 01:36:00,67.9,65.5,29.71,SSW,205,0.0,1.0,92,0.00,,,0.00,VWS V14.01,2013-08-13 05:36:00,
2013-08-13 01:41:00,67.6,65.2,29.71,SSW,205,0.0,1.0,92,0.00,,,0.00,VWS V14.01,2013-08-13 05:41:00,
2013-08-13 01:46:00,67.4,65.3,29.71,SSW,205,0.0,1.0,93,0.00,,,0.00,VWS V14.01,2013-08-13 05:46:00,
2013-08-13 01:51:00,67.2,65.1,29.71,SSW,205,0.0,1.0,93,0.00,,,0.00,VWS V14.01,2013-08-13 05:51:00,
2013-08-13 01:56:00,67.0,64.9,29.71,SSE,160,0.0,1.0,93,0.00,,,0.00,VWS V14.01,2013-08-13 05:56:00,
2013-08-13 02:01:00,66.8,65.0,29.71,South,169,0.0,1.0,94,0.00,,,0.00,VWS V14.01,2013-08-13 06:01:00,
2013-08-13 02:06:00,66.8,65.0,29.71,South,169,0.0,0.0,94,0.00,,,0.00,VWS V14.01,2013-08-13 06:06:00,
2013-08-13 02:11:00,66.7,64.9,29.71,SW,226,0.0,1.0,94,0.00,,,0.00,VWS V14.01,2013-08-13 06:11:00,
2013-08-13 02:16:00,66.6,64.8,29.71,SW,227,0.0,1.0,94,0.00,,,0.00,VWS V14.01,2013-08-13 06:16:00,
2013-08-13 02:21:00,66.5,64.7,29.71,SSW,198,1.0,1.0,94,0.00,,,0.00,VWS V14.01,2013-08-13 06:21:00,
2013-08-13 02:26:00,66.5,64.7,29.70,SSW,209,0.0,1.0,94,0.00,,,0.00,VWS V14.01,2013-08-13 06:26:00,
2013-08-13 02:31:00,66.3,64.5,29.70,SSW,207,0.0,1.0,94,0.00,,,0.00,VWS V14.01,2013-08-13 06:31:00,
2013-08-13 02:36:00,66.2,64.4,29.70,SSW,207,0.0,1.0,94,0.00,,,0.00,VWS V14.01,2013-08-13 06:36:00,
2013-08-13 02:41:00,66.1,64.3,29.70,SSW,207,0.0,1.0,94,0.00,,,0.00,VWS V14.01,2013-08-13 06:41:00,
2013-08-13 02:46:00,65.9,64.1,29.70,SSW,207,0.0,1.0,94,0.00,,,0.00,VWS V14.01,2013-08-13 06:46:00,
2013-08-13 02:51:00,65.8,64.0,29.70,SSW,195,0.0,1.0,94,0.00,,,0.00,VWS V14.01,2013-08-13 06:51:00,
2013-08-13 02:56:00,65.6,63.8,29.69,SSW,196,0.0,1.0,94,0.00,,,0.00,VWS V14.01,2013-08-13 06:56:00,
2013-08-13 03:01:00,65.4,63.6,29.69,SSW,196,0.0,1.0,94,0.00,,,0.00,VWS V14.01,2013-08-13 07:01:00,
2013-08-13 03:06:00,65.2,63.4,29.69,SSW,196,0.0,1.0,94,0.00,,,0.00,VWS V14.01,2013-08-13 07:06:00,
2013-08-13 03:11:00,65.1,63.3,29.69,SSW,196,0.0,1.0,94,0.00,,,0.00,VWS V14.01,2013-08-13 07:11:00,
2013-08-13 03:16:00,65.0,63.5,29.69,SSW,194,0.0,1.0,95,0.00,,,0.00,VWS V14.01,2013-08-13 07:16:00,
2013-08-13 03:21:00,64.9,63.4,29.69,SSW,194,0.0,1.0,95,0.00,,,0.00,VWS V14.01,2013-08-13 07:21:00,
2013-08-13 03:26:00,64.8,63.3,29.69,SSW,194,0.0,1.0,95,0.00,,,0.00,VWS V14.01,2013-08-13 07:26:00,
2013-08-13 03:31:00,64.7,63.2,29.70,SSW,193,0.0,1.0,95,0.00,,,0.00,VWS V14.01,2013-08-13 07:31:00,
2013-08-13 03:36:00,64.7,63.2,29.70,SSW,193,0.0,1.0,95,0.00,,,0.00,VWS V14.01,2013-08-13 07:36:00,
2013-08-13 03:41:00,64.6,63.4,29.70,SSW,195,0.0,1.0,96,0.00,,,0.00,VWS V14.01,2013-08-13 07:41:00,
2013-08-13 03:46:00,64.5,63.3,29.70,SSW,194,0.0,1.0,96,0.00,,,0.00,VWS V14.01,2013-08-13 07:46:00,
2013-08-13 03:51:00,64.3,63.1,29.70,SSW,194,0.0,1.0,96,0.00,,,0.00,VWS V14.01,2013-08-13 07:51:00,
2013-08-13 03:56:00,64.2,63.0,29.70,SSW,194,0.0,1.0,96,0.00,,,0.00,VWS V14.01,2013-08-13 07:56:00,
2013-08-13 04:01:00,64.2,63.0,29.70,SSW,194,0.0,1.0,96,0.00,,,0.00,VWS V14.01,2013-08-13 08:01:00,
2013-08-13 04:06:00,64.1,62.9,29.70,SSW,194,0.0,0.0,96,0.00,,,0.00,VWS V14.01,2013-08-13 08:06:00,
2013-08-13 04:11:00,64.0,62.8,29.70,SSW,193,0.0,0.0,96,0.00,,,0.00,VWS V14.01,2013-08-13 08:11:00,
2013-08-13 04:16:00,63.9,62.7,29.70,SSW,194,0.0,0.0,96,0.00,,,0.00,VWS V14.01,2013-08-13 08:16:00,
2013-08-13 04:21:00,63.8,62.9,29.70,SSW,194,0.0,0.0,97,0.00,,,0.00,VWS V14.01,2013-08-13 08:21:00,
2013-08-13 04:26:00,63.8,62.9,29.70,SSW,193,0.0,0.0,97,0.00,,,0.00,VWS V14.01,2013-08-13 08:26:00,
2013-08-13 04:31:00,63.7,62.8,29.70,SSW,194,0.0,0.0,97,0.00,,,0.00,VWS V14.01,2013-08-13 08:31:00,
2013-08-13 04:36:00,63.7,62.8,29.70,SSW,194,0.0,0.0,97,0.00,,,0.00,VWS V14.01,2013-08-13 08:36:00,
2013-08-13 04:41:00,63.7,62.8,29.71,SSW,194,0.0,0.0,97,0.00,,,0.00,VWS V14.01,2013-08-13 08:41:00,
2013-08-13 04:46:00,63.6,62.7,29.70,SSW,194,0.0,0.0,97,0.00,,,0.00,VWS V14.01,2013-08-13 08:46:00,
2013-08-13 04:51:00,63.5,62.6,29.71,SSW,194,0.0,0.0,97,0.00,,,0.00,VWS V14.01,2013-08-13 08:51:00,
2013-08-13 04:56:00,63.4,62.5,29.71,SSW,194,0.0,0.0,97,0.00,,,0.00,VWS V14.01,2013-08-13 08:56:00,
2013-08-13 05:01:00,63.3,62.4,29.71,SSW,194,0.0,0.0,97,0.00,,,0.00,VWS V14.01,2013-08-13 09:01:00,
2013-08-13 05:06:00,63.2,62.3,29.71,SSW,194,0.0,1.0,97,0.00,,,0.00,VWS V14.01,2013-08-13 09:06:00,
2013-08-13 05:11:00,63.1,62.2,29.71,SSW,203,0.0,1.0,97,0.00,,,0.00,VWS V14.01,2013-08-13 09:11:00,
2013-08-13 05:16:00,63.0,62.1,29.71,SSW,200,0.0,1.0,97,0.00,,,0.00,VWS V14.01,2013-08-13 09:16:00,
2013-08-13 05:21:00,63.0,62.1,29.72,NW,308,0.0,1.0,97,0.00,,,0.00,VWS V14.01,2013-08-13 09:21:00,
2013-08-13 05:26:00,62.9,62.0,29.72,SSW,207,0.0,1.0,97,0.00,,,0.00,VWS V14.01,2013-08-13 09:26:00,
2013-08-13 05:31:00,62.8,61.9,29.72,SSW,207,0.0,1.0,97,0.00,,,0.00,VWS V14.01,2013-08-13 09:31:00,
2013-08-13 05:36:00,62.9,62.3,29.72,SSW,212,0.0,2.0,98,0.00,,,0.00,VWS V14.01,2013-08-13 09:36:00,
2013-08-13 05:40:00,62.9,62.0,29.72,South,184,0.0,2.0,97,0.00,,,0.00,VWS V14.01,2013-08-13 09:40:00,
2013-08-13 05:45:00,62.9,62.0,29.72,South,184,0.0,2.0,97,0.00,,,0.00,VWS V14.01,2013-08-13 09:45:00,
2013-08-13 05:50:00,62.8,61.9,29.73,SSW,198,0.0,2.0,97,0.00,,,0.00,VWS V14.01,2013-08-13 09:50:00,
2013-08-13 05:55:00,62.8,61.9,29.73,North,354,2.0,3.0,97,0.00,,,0.00,VWS V14.01,2013-08-13 09:55:00,
2013-08-13 06:00:00,62.7,61.8,29.73,ESE,109,2.0,4.0,97,0.00,,,0.00,VWS V14.01,2013-08-13 10:00:00,
2013-08-13 06:05:00,62.6,61.7,29.73,NW,312,2.0,4.0,97,0.00,,,0.00,VWS V14.01,2013-08-13 10:05:00,
2013-08-13 06:11:00,62.5,61.3,29.73,SE,134,0.0,5.0,96,0.00,,,0.00,VWS V14.01,2013-08-13 10:11:00,
2013-08-13 06:15:00,62.4,61.2,29.74,SSE,158,0.0,5.0,96,0.00,,,0.00,VWS V14.01,2013-08-13 10:15:00,
2013-08-13 06:20:00,62.4,61.0,29.74,SSW,212,1.0,5.0,95,0.00,,,0.00,VWS V14.01,2013-08-13 10:20:00,
2013-08-13 06:25:00,62.3,60.8,29.74,SSW,200,0.0,5.0,95,0.00,,,0.00,VWS V14.01,2013-08-13 10:25:00,
2013-08-13 06:30:00,62.2,60.8,29.74,South,179,0.0,5.0,95,0.00,,,0.00,VWS V14.01,2013-08-13 10:30:00,
2013-08-13 06:35:00,62.1,60.7,29.75,South,173,0.0,5.0,95,0.00,,,0.00,VWS V14.01,2013-08-13 10:35:00,
2013-08-13 06:40:00,62.0,60.3,29.75,SSE,160,0.0,5.0,94,0.00,,,0.00,VWS V14.01,2013-08-13 10:40:00,
2013-08-13 06:45:00,62.0,60.3,29.75,SSE,160,0.0,5.0,94,0.00,,,0.00,VWS V14.01,2013-08-13 10:45:00,
2013-08-13 06:50:00,61.9,60.2,29.75,NW,320,0.0,5.0,94,0.00,,,0.00,VWS V14.01,2013-08-13 10:50:00,
2013-08-13 06:55:00,61.9,60.2,29.75,South,184,0.0,5.0,94,0.00,,,0.00,VWS V14.01,2013-08-13 10:55:00,
2013-08-13 07:00:00,61.8,60.1,29.76,South,184,0.0,6.0,94,0.00,,,0.00,VWS V14.01,2013-08-13 11:00:00,
2013-08-13 07:05:00,61.8,60.1,29.75,South,179,0.0,2.0,94,0.00,,,0.00,VWS V14.01,2013-08-13 11:05:00,
2013-08-13 07:10:00,61.7,59.7,29.76,SSW,194,0.0,2.0,93,0.00,,,0.00,VWS V14.01,2013-08-13 11:10:00,
2013-08-13 07:15:00,61.7,59.7,29.76,SE,135,1.0,3.0,93,0.00,,,0.00,VWS V14.01,2013-08-13 11:15:00,
2013-08-13 07:20:00,61.7,59.7,29.76,SSE,151,0.0,4.0,93,0.00,,,0.00,VWS V14.01,2013-08-13 11:20:00,
2013-08-13 07:25:00,61.6,59.6,29.76,NW,312,2.0,5.0,93,0.00,,,0.00,VWS V14.01,2013-08-13 11:25:00,
2013-08-13 07:30:00,61.6,59.6,29.76,ESE,118,0.0,5.0,93,0.00,,,0.00,VWS V14.01,2013-08-13 11:30:00,
2013-08-13 07:35:00,61.5,59.5,29.76,WSW,250,0.0,5.0,93,0.00,,,0.00,VWS V14.01,2013-08-13 11:35:00,
2013-08-13 07:40:00,61.4,59.4,29.76,South,173,0.0,7.0,93,0.00,,,0.00,VWS V14.01,2013-08-13 11:40:00,
2013-08-13 07:45:00,61.4,59.4,29.76,East,96,1.0,8.0,93,0.00,,,0.00,VWS V14.01,2013-08-13 11:45:00,
2013-08-13 07:50:00,61.3,59.3,29.76,West,271,1.0,8.0,93,0.00,,,0.00,VWS V14.01,2013-08-13 11:50:00,
2013-08-13 07:55:00,61.3,59.3,29.77,SW,223,1.0,8.0,93,0.00,,,0.00,VWS V14.01,2013-08-13 11:55:00,
2013-08-13 08:00:00,61.3,59.3,29.77,NW,326,3.0,8.0,93,0.00,,,0.00,VWS V14.01,2013-08-13 12:00:00,
2013-08-13 08:05:00,61.4,59.4,29.77,WSW,251,1.0,5.0,93,0.00,,,0.00,VWS V14.01,2013-08-13 12:05:00,
2013-08-13 08:10:00,61.4,59.4,29.78,SE,127,0.0,5.0,93,0.00,,,0.00,VWS V14.01,2013-08-13 12:10:00,
2013-08-13 08:15:00,61.4,59.4,29.78,SE,125,1.0,6.0,93,0.00,,,0.00,VWS V14.01,2013-08-13 12:15:00,
2013-08-13 08:20:00,61.3,59.3,29.78,South,187,0.0,9.0,93,0.00,,,0.00,VWS V14.01,2013-08-13 12:20:00,
2013-08-13 08:25:00,61.3,59.3,29.78,ESE,107,2.0,9.0,93,0.00,,,0.00,VWS V14.01,2013-08-13 12:25:00,
2013-08-13 08:30:00,61.3,59.3,29.78,SE,145,1.0,9.0,93,0.00,,,0.00,VWS V14.01,2013-08-13 12:30:00,
2013-08-13 08:35:00,61.2,59.2,29.78,SE,125,0.0,9.0,93,0.00,,,0.00,VWS V14.01,2013-08-13 12:35:00,
2013-08-13 08:40:00,61.1,59.1,29.79,NNW,333,2.0,9.0,93,0.00,,,0.00,VWS V14.01,2013-08-13 12:40:00,
2013-08-13 08:45:00,61.1,59.1,29.79,NNW,340,1.0,9.0,93,0.00,,,0.00,VWS V14.01,2013-08-13 12:45:00,
2013-08-13 08:50:00,61.1,59.1,29.80,SE,128,1.0,9.0,93,0.00,,,0.00,VWS V14.01,2013-08-13 12:50:00,
2013-08-13 08:55:00,61.1,59.1,29.80,SSE,159,0.0,9.0,93,0.00,,,0.00,VWS V14.01,2013-08-13 12:55:00,
2013-08-13 09:00:00,61.2,59.2,29.80,SSE,158,0.0,9.0,93,0.00,,,0.00,VWS V14.01,2013-08-13 13:00:00,
2013-08-13 09:05:00,61.1,59.1,29.81,ESE,117,0.0,4.0,93,0.00,,,0.00,VWS V14.01,2013-08-13 13:05:00,
2013-08-13 09:10:00,61.1,59.1,29.81,SSE,168,0.0,4.0,93,0.00,,,0.00,VWS V14.01,2013-08-13 13:10:00,
2013-08-13 09:15:00,60.9,58.9,29.81,SSE,167,0.0,5.0,93,0.00,,,0.00,VWS V14.01,2013-08-13 13:15:00,
2013-08-13 09:20:00,60.8,58.8,29.81,SW,222,0.0,5.0,93,0.00,,,0.00,VWS V14.01,2013-08-13 13:20:00,
2013-08-13 09:25:00,60.8,58.8,29.82,West,281,2.0,5.0,93,0.00,,,0.00,VWS V14.01,2013-08-13 13:25:00,
2013-08-13 09:30:00,60.7,58.7,29.82,SW,228,0.0,5.0,93,0.00,,,0.00,VWS V14.01,2013-08-13 13:30:00,
2013-08-13 09:35:00,60.6,58.6,29.82,WSW,240,6.0,6.0,93,0.00,,,0.00,VWS V14.01,2013-08-13 13:35:00,
2013-08-13 09:40:00,60.4,58.1,29.82,West,277,2.0,7.0,92,0.00,,,0.00,VWS V14.01,2013-08-13 13:40:00,
2013-08-13 09:45:00,60.4,58.1,29.82,South,176,0.0,7.0,92,0.00,,,0.00,VWS V14.01,2013-08-13 13:45:00,
2013-08-13 09:50:00,60.5,58.2,29.81,ESE,115,2.0,7.0,92,0.00,,,0.00,VWS V14.01,2013-08-13 13:50:00,
2013-08-13 09:55:00,60.5,58.2,29.81,ESE,111,0.0,7.0,92,0.00,,,0.00,VWS V14.01,2013-08-13 13:55:00,
2013-08-13 10:00:00,60.6,58.3,29.81,WNW,290,2.0,7.0,92,0.00,,,0.00,VWS V14.01,2013-08-13 14:00:00,
2013-08-13 10:05:00,60.7,58.4,29.81,WNW,290,1.0,3.0,92,0.00,,,0.00,VWS V14.01,2013-08-13 14:05:00,
2013-08-13 10:10:00,60.6,58.3,29.82,SW,229,2.0,4.0,92,0.00,,,0.00,VWS V14.01,2013-08-13 14:10:00,
2013-08-13 10:15:00,60.5,58.2,29.82,NW,310,0.0,5.0,92,0.00,,,0.00,VWS V14.01,2013-08-13 14:15:00,
2013-08-13 10:20:00,60.6,58.3,29.82,SSW,209,0.0,5.0,92,0.00,,,0.00,VWS V14.01,2013-08-13 14:20:00,
2013-08-13 10:25:00,60.6,58.0,29.82,WNW,287,3.0,5.0,91,0.00,,,0.00,VWS V14.01,2013-08-13 14:25:00,
2013-08-13 10:30:00,60.7,58.1,29.82,NNW,346,0.0,5.0,91,0.00,,,0.00,VWS V14.01,2013-08-13 14:30:00,
2013-08-13 10:35:00,60.7,57.8,29.83,WNW,297,1.0,5.0,90,0.00,,,0.00,VWS V14.01,2013-08-13 14:35:00,
2013-08-13 10:40:00,60.9,57.6,29.83,SW,215,0.0,5.0,89,0.00,,,0.00,VWS V14.01,2013-08-13 14:40:00,
2013-08-13 10:45:00,61.3,57.7,29.83,NNW,342,1.0,5.0,88,0.00,,,0.00,VWS V14.01,2013-08-13 14:45:00,
2013-08-13 10:50:00,61.6,57.0,29.83,SW,235,1.0,5.0,85,0.00,,,0.00,VWS V14.01,2013-08-13 14:50:00,
2013-08-13 10:55:00,61.7,57.2,29.83,WNW,284,1.0,5.0,85,0.00,,,0.00,VWS V14.01,2013-08-13 14:55:00,
2013-08-13 11:00:00,62.0,57.5,29.83,South,180,0.0,5.0,85,0.00,,,0.00,VWS V14.01,2013-08-13 15:00:00,
2013-08-13 11:05:00,62.5,57.9,29.83,WNW,285,2.0,4.0,85,0.00,,,0.00,VWS V14.01,2013-08-13 15:05:00,
2013-08-13 11:10:00,62.7,57.1,29.84,SE,134,1.0,7.0,82,0.00,,,0.00,VWS V14.01,2013-08-13 15:10:00,
2013-08-13 11:15:00,62.8,57.2,29.84,NNW,330,2.0,7.0,82,0.00,,,0.00,VWS V14.01,2013-08-13 15:15:00,
2013-08-13 11:20:00,62.8,57.6,29.84,NE,41,3.0,7.0,83,0.00,,,0.00,VWS V14.01,2013-08-13 15:20:00,
2013-08-13 11:25:00,62.8,56.9,29.84,WNW,282,4.0,7.0,81,0.00,,,0.00,VWS V14.01,2013-08-13 15:25:00,
2013-08-13 11:30:00,62.7,56.5,29.84,NNW,331,2.0,7.0,80,0.00,,,0.00,VWS V14.01,2013-08-13 15:30:00,
2013-08-13 11:35:00,62.8,56.2,29.84,East,96,4.0,7.0,79,0.00,,,0.00,VWS V14.01,2013-08-13 15:35:00,
2013-08-13 11:40:00,63.1,56.8,29.84,SE,135,0.0,7.0,80,0.00,,,0.00,VWS V14.01,2013-08-13 15:40:00,
2013-08-13 11:45:00,63.7,57.1,29.84,South,176,0.0,7.0,79,0.00,,,0.00,VWS V14.01,2013-08-13 15:45:00,
2013-08-13 11:50:00,63.7,56.7,29.84,ESE,119,0.0,9.0,78,0.00,,,0.00,VWS V14.01,2013-08-13 15:50:00,
2013-08-13 11:55:00,63.9,56.6,29.84,SSE,159,1.0,9.0,77,0.00,,,0.00,VWS V14.01,2013-08-13 15:55:00,
2013-08-13 12:00:00,64.1,55.3,29.84,East,97,3.0,9.0,73,0.00,,,0.00,VWS V14.01,2013-08-13 16:00:00,
2013-08-13 12:05:00,64.1,55.3,29.84,SE,141,1.0,4.0,73,0.00,,,0.00,VWS V14.01,2013-08-13 16:05:00,
2013-08-13 12:10:00,64.1,54.5,29.85,SW,224,1.0,5.0,71,0.00,,,0.00,VWS V14.01,2013-08-13 16:10:00,
2013-08-13 12:15:00,64.0,54.4,29.85,ESE,105,3.0,6.0,71,0.00,,,0.00,VWS V14.01,2013-08-13 16:15:00,
2013-08-13 12:20:00,64.0,54.8,29.84,SSW,201,1.0,6.0,72,0.00,,,0.00,VWS V14.01,2013-08-13 16:20:00,
2013-08-13 12:25:00,64.0,55.2,29.85,SSE,166,0.0,6.0,73,0.00,,,0.00,VWS V14.01,2013-08-13 16:25:00,
2013-08-13 12:30:00,64.4,55.6,29.85,South,191,0.0,6.0,73,0.00,,,0.00,VWS V14.01,2013-08-13 16:30:00,
2013-08-13 12:35:00,64.5,55.7,29.85,South,184,0.0,6.0,73,0.00,,,0.00,VWS V14.01,2013-08-13 16:35:00,
2013-08-13 12:40:00,64.7,56.2,29.84,SSW,211,1.0,6.0,74,0.00,,,0.00,VWS V14.01,2013-08-13 16:40:00,
2013-08-13 12:45:00,64.9,54.9,29.84,SW,214,2.0,7.0,70,0.00,,,0.00,VWS V14.01,2013-08-13 16:45:00,
2013-08-13 12:50:00,65.0,54.6,29.85,WSW,255,1.0,7.0,69,0.00,,,0.00,VWS V14.01,2013-08-13 16:50:00,
2013-08-13 12:55:00,65.1,54.7,29.85,SW,233,2.0,7.0,69,0.00,,,0.00,VWS V14.01,2013-08-13 16:55:00,
2013-08-13 13:00:00,65.2,55.2,29.85,North,349,5.0,8.0,70,0.00,,,0.00,VWS V14.01,2013-08-13 17:00:00,
2013-08-13 13:05:00,65.4,55.4,29.85,WNW,283,1.0,7.0,70,0.00,,,0.00,VWS V14.01,2013-08-13 17:05:00,
2013-08-13 13:12:00,65.9,57.0,29.85,WNW,302,6.0,7.0,73,0.00,,,0.00,VWS V14.01,2013-08-13 17:12:00,
2013-08-13 13:17:00,66.2,55.7,29.85,SE,129,1.0,7.0,69,0.00,,,0.00,VWS V14.01,2013-08-13 17:17:00,
2013-08-13 13:22:00,66.3,55.0,29.85,WSW,257,2.0,8.0,67,0.00,,,0.00,VWS V14.01,2013-08-13 17:22:00,
2013-08-13 13:27:00,66.3,56.2,29.85,WNW,300,2.0,8.0,70,0.00,,,0.00,VWS V14.01,2013-08-13 17:27:00,
2013-08-13 13:32:00,66.5,55.2,29.85,NW,321,1.0,8.0,67,0.00,,,0.00,VWS V14.01,2013-08-13 17:32:00,
2013-08-13 13:37:00,66.9,55.2,29.85,SSW,194,0.0,8.0,66,0.00,,,0.00,VWS V14.01,2013-08-13 17:37:00,
2013-08-13 13:42:00,66.9,55.2,29.85,WNW,295,2.0,8.0,66,0.00,,,0.00,VWS V14.01,2013-08-13 17:42:00,
2013-08-13 13:47:00,67.1,55.0,29.84,South,186,0.0,8.0,65,0.00,,,0.00,VWS V14.01,2013-08-13 17:47:00,
2013-08-13 13:52:00,67.4,54.4,29.85,ESE,116,0.0,8.0,63,0.00,,,0.00,VWS V14.01,2013-08-13 17:52:00,
2013-08-13 13:57:00,67.5,53.6,29.85,South,169,1.0,8.0,61,0.00,,,0.00,VWS V14.01,2013-08-13 17:57:00,
2013-08-13 14:02:00,67.8,54.3,29.85,SSW,208,0.0,8.0,62,0.00,,,0.00,VWS V14.01,2013-08-13 18:02:00,
2013-08-13 14:07:00,68.4,54.4,29.85,North,356,7.0,7.0,61,0.00,,,0.00,VWS V14.01,2013-08-13 18:07:00,
2013-08-13 14:12:00,68.3,54.3,29.85,SW,214,2.0,8.0,61,0.00,,,0.00,VWS V14.01,2013-08-13 18:12:00,
2013-08-13 14:17:00,68.4,54.0,29.85,WSW,253,1.0,8.0,60,0.00,,,0.00,VWS V14.01,2013-08-13 18:17:00,
2013-08-13 14:22:00,68.8,54.4,29.85,NNW,332,3.0,8.0,60,0.00,,,0.00,VWS V14.01,2013-08-13 18:22:00,
2013-08-13 14:27:00,69.1,55.1,29.85,ESE,107,0.0,8.0,61,0.00,,,0.00,VWS V14.01,2013-08-13 18:27:00,
2013-08-13 14:32:00,69.4,55.4,29.85,SSW,195,1.0,8.0,61,0.00,,,0.00,VWS V14.01,2013-08-13 18:32:00,
2013-08-13 14:37:00,69.6,54.7,29.85,SSW,203,0.0,8.0,59,0.00,,,0.00,VWS V14.01,2013-08-13 18:37:00,
2013-08-13 14:42:00,69.6,51.7,29.85,SE,135,0.0,12.0,53,0.00,,,0.00,VWS V14.01,2013-08-13 18:42:00,
2013-08-13 14:47:00,69.3,52.5,29.85,SW,233,4.0,12.0,55,0.00,,,0.00,VWS V14.01,2013-08-13 18:47:00,
2013-08-13 14:52:00,69.0,52.7,29.85,SW,215,1.0,12.0,56,0.00,,,0.00,VWS V14.01,2013-08-13 18:52:00,
2013-08-13 14:57:00,69.6,53.2,29.85,ESE,105,2.0,12.0,56,0.00,,,0.00,VWS V14.01,2013-08-13 18:57:00,
2013-08-13 15:02:00,69.3,53.4,29.85,SSE,162,0.0,12.0,57,0.00,,,0.00,VWS V14.01,2013-08-13 19:02:00,
2013-08-13 15:07:00,69.2,54.3,29.85,SW,215,1.0,4.0,59,0.00,,,0.00,VWS V14.01,2013-08-13 19:07:00,
2013-08-13 15:12:00,69.0,53.6,29.85,NW,316,3.0,6.0,58,0.00,,,0.00,VWS V14.01,2013-08-13 19:12:00,
2013-08-13 15:17:00,69.0,53.6,29.85,SSE,159,0.0,6.0,58,0.00,,,0.00,VWS V14.01,2013-08-13 19:17:00,
2013-08-13 15:22:00,69.3,54.4,29.85,NNW,335,2.0,7.0,59,0.00,,,0.00,VWS V14.01,2013-08-13 19:22:00,
2013-08-13 15:27:00,68.8,53.4,29.85,SW,232,2.0,7.0,58,0.00,,,0.00,VWS V14.01,2013-08-13 19:27:00,
2013-08-13 15:32:00,68.7,52.9,29.85,NNW,333,0.0,7.0,57,0.00,,,0.00,VWS V14.01,2013-08-13 19:32:00,
2013-08-13 15:37:00,69.5,53.6,29.85,SE,127,0.0,8.0,57,0.00,,,0.00,VWS V14.01,2013-08-13 19:37:00,
2013-08-13 15:42:00,70.3,53.9,29.85,ESE,121,0.0,8.0,56,0.00,,,0.00,VWS V14.01,2013-08-13 19:42:00,
2013-08-13 15:47:00,70.7,52.8,29.85,NNW,333,4.0,8.0,53,0.00,,,0.00,VWS V14.01,2013-08-13 19:47:00,
2013-08-13 15:52:00,70.3,52.9,29.85,East,96,3.0,8.0,54,0.00,,,0.00,VWS V14.01,2013-08-13 19:52:00,
2013-08-13 15:57:00,70.4,54.5,29.85,WNW,293,4.0,8.0,57,0.00,,,0.00,VWS V14.01,2013-08-13 19:57:00,
2013-08-13 16:02:00,70.3,52.4,29.86,WSW,238,1.0,8.0,53,0.00,,,0.00,VWS V14.01,2013-08-13 20:02:00,
2013-08-13 16:07:00,70.3,51.3,29.86,SW,214,2.0,8.0,51,0.00,,,0.00,VWS V14.01,2013-08-13 20:07:00,
2013-08-13 16:12:00,70.3,51.3,29.85,WNW,285,2.0,8.0,51,0.00,,,0.00,VWS V14.01,2013-08-13 20:12:00,
2013-08-13 16:17:00,70.2,51.2,29.85,WSW,245,4.0,8.0,51,0.00,,,0.00,VWS V14.01,2013-08-13 20:17:00,
2013-08-13 16:22:00,70.1,51.7,29.85,NNW,328,2.0,10.0,52,0.00,,,0.00,VWS V14.01,2013-08-13 20:22:00,
2013-08-13 16:27:00,70.5,52.6,29.85,WNW,283,3.0,10.0,53,0.00,,,0.00,VWS V14.01,2013-08-13 20:27:00,
2013-08-13 16:32:00,71.4,52.9,29.85,NNW,338,3.0,10.0,52,0.00,,,0.00,VWS V14.01,2013-08-13 20:32:00,
2013-08-13 16:37:00,70.7,51.7,29.86,West,260,5.0,10.0,51,0.00,,,0.00,VWS V14.01,2013-08-13 20:37:00,
2013-08-13 16:42:00,70.1,51.2,29.86,West,276,3.0,10.0,51,0.00,,,0.00,VWS V14.01,2013-08-13 20:42:00,
2013-08-13 16:47:00,69.6,52.2,29.85,SSW,212,0.0,10.0,54,0.00,,,0.00,VWS V14.01,2013-08-13 20:47:00,
2013-08-13 16:52:00,70.2,52.8,29.85,SSW,207,0.0,10.0,54,0.00,,,0.00,VWS V14.01,2013-08-13 20:52:00,
2013-08-13 16:57:00,70.8,53.8,29.86,WNW,298,6.0,10.0,55,0.00,,,0.00,VWS V14.01,2013-08-13 20:57:00,
2013-08-13 17:02:00,70.9,52.9,29.86,NW,304,6.0,10.0,53,0.00,,,0.00,VWS V14.01,2013-08-13 21:02:00,
2013-08-13 17:07:00,70.1,52.2,29.86,SW,219,1.0,7.0,53,0.00,,,0.00,VWS V14.01,2013-08-13 21:07:00,
2013-08-13 17:12:00,69.3,51.5,29.86,NW,323,3.0,7.0,53,0.00,,,0.00,VWS V14.01,2013-08-13 21:12:00,
2013-08-13 17:17:00,68.9,51.6,29.86,West,259,2.0,7.0,54,0.00,,,0.00,VWS V14.01,2013-08-13 21:17:00,
2013-08-13 17:22:00,69.3,53.9,29.86,East,99,7.0,7.0,58,0.00,,,0.00,VWS V14.01,2013-08-13 21:22:00,
2013-08-13 17:27:00,69.5,51.6,29.86,WNW,289,6.0,9.0,53,0.00,,,0.00,VWS V14.01,2013-08-13 21:27:00,
2013-08-13 17:32:00,69.3,52.0,29.87,ESE,113,1.0,11.0,54,0.00,,,0.00,VWS V14.01,2013-08-13 21:32:00,
2013-08-13 17:37:00,69.5,51.6,29.87,SW,228,0.0,11.0,53,0.00,,,0.00,VWS V14.01,2013-08-13 21:37:00,
2013-08-13 17:42:00,69.5,51.1,29.86,SE,128,2.0,11.0,52,0.00,,,0.00,VWS V14.01,2013-08-13 21:42:00,
2013-08-13 17:47:00,69.7,52.3,29.86,SSW,200,0.0,11.0,54,0.00,,,0.00,VWS V14.01,2013-08-13 21:47:00,
2013-08-13 17:52:00,69.6,51.7,29.87,WSW,251,5.0,11.0,53,0.00,,,0.00,VWS V14.01,2013-08-13 21:52:00,
2013-08-13 17:57:00,68.7,50.9,29.87,ESE,102,0.0,11.0,53,0.00,,,0.00,VWS V14.01,2013-08-13 21:57:00,
2013-08-13 18:02:00,68.4,50.6,29.87,ESE,123,3.0,11.0,53,0.00,,,0.00,VWS V14.01,2013-08-13 22:02:00,
2013-08-13 18:07:00,68.2,50.4,29.87,WNW,290,3.0,7.0,53,0.00,,,0.00,VWS V14.01,2013-08-13 22:07:00,
2013-08-13 18:12:00,68.0,50.2,29.87,ESE,105,3.0,8.0,53,0.00,,,0.00,VWS V14.01,2013-08-13 22:12:00,
2013-08-13 18:17:00,68.2,50.4,29.87,WSW,242,2.0,9.0,53,0.00,,,0.00,VWS V14.01,2013-08-13 22:17:00,
2013-08-13 18:22:00,68.6,51.3,29.87,ESE,120,1.0,9.0,54,0.00,,,0.00,VWS V14.01,2013-08-13 22:22:00,
2013-08-13 18:27:00,68.9,51.1,29.87,NW,307,2.0,9.0,53,0.00,,,0.00,VWS V14.01,2013-08-13 22:27:00,
2013-08-13 18:32:00,69.1,50.2,29.87,ESE,104,0.0,9.0,51,0.00,,,0.00,VWS V14.01,2013-08-13 22:32:00,
2013-08-13 18:37:00,69.3,52.0,29.87,SSW,210,1.0,9.0,54,0.00,,,0.00,VWS V14.01,2013-08-13 22:37:00,
2013-08-13 18:42:00,69.1,50.8,29.87,WSW,238,1.0,9.0,52,0.00,,,0.00,VWS V14.01,2013-08-13 22:42:00,
2013-08-13 18:47:00,68.8,51.5,29.87,WSW,240,0.0,10.0,54,0.00,,,0.00,VWS V14.01,2013-08-13 22:47:00,
2013-08-13 18:52:00,68.3,51.0,29.88,ESE,117,3.0,10.0,54,0.00,,,0.00,VWS V14.01,2013-08-13 22:52:00,
2013-08-13 18:57:00,68.0,50.8,29.88,ESE,122,2.0,10.0,54,0.00,,,0.00,VWS V14.01,2013-08-13 22:57:00,
2013-08-13 19:02:00,68.0,50.8,29.88,SSE,154,0.0,10.0,54,0.00,,,0.00,VWS V14.01,2013-08-13 23:02:00,
2013-08-13 19:07:00,68.3,50.5,29.87,West,263,2.0,4.0,53,0.00,,,0.00,VWS V14.01,2013-08-13 23:07:00,
2013-08-13 19:12:00,68.1,50.8,29.88,WSW,238,1.0,5.0,54,0.00,,,0.00,VWS V14.01,2013-08-13 23:12:00,
2013-08-13 19:17:00,67.7,51.0,29.88,SW,218,0.0,5.0,55,0.00,,,0.00,VWS V14.01,2013-08-13 23:17:00,
2013-08-13 19:22:00,67.6,50.9,29.87,SSW,204,0.0,5.0,55,0.00,,,0.00,VWS V14.01,2013-08-13 23:22:00,
2013-08-13 19:27:00,67.0,51.3,29.88,South,172,0.0,5.0,57,0.00,,,0.00,VWS V14.01,2013-08-13 23:27:00,
2013-08-13 19:32:00,66.3,51.1,29.88,WSW,248,2.0,5.0,58,0.00,,,0.00,VWS V14.01,2013-08-13 23:32:00,
2013-08-13 19:37:00,65.7,51.0,29.88,West,267,1.0,5.0,59,0.00,,,0.00,VWS V14.01,2013-08-13 23:37:00,
2013-08-13 19:42:00,65.3,51.5,29.88,SSW,194,0.0,5.0,61,0.00,,,0.00,VWS V14.01,2013-08-13 23:42:00,
2013-08-13 19:47:00,65.1,51.8,29.88,WSW,239,0.0,5.0,62,0.00,,,0.00,VWS V14.01,2013-08-13 23:47:00,
2013-08-13 19:52:00,64.7,51.4,29.88,WSW,239,0.0,5.0,62,0.00,,,0.00,VWS V14.01,2013-08-13 23:52:00,
2013-08-13 19:57:00,64.5,51.6,29.88,SW,225,0.0,5.0,63,0.00,,,0.00,VWS V14.01,2013-08-13 23:57:00,
2013-08-13 20:02:00,64.3,51.9,29.88,SSW,200,0.0,5.0,64,0.00,,,0.00,VWS V14.01,2013-08-14 00:02:00,
2013-08-13 20:07:00,64.0,52.0,29.88,SSW,201,0.0,1.0,65,0.00,,,0.00,VWS V14.01,2013-08-14 00:07:00,
2013-08-13 20:12:00,63.7,52.1,29.88,SSW,201,0.0,1.0,66,0.00,,,0.00,VWS V14.01,2013-08-14 00:12:00,
2013-08-13 20:17:00,63.3,52.2,29.88,SSW,201,0.0,1.0,67,0.00,,,0.00,VWS V14.01,2013-08-14 00:17:00,
2013-08-13 20:22:00,63.0,52.3,29.88,SSW,202,0.0,1.0,68,0.00,,,0.00,VWS V14.01,2013-08-14 00:22:00,
2013-08-13 20:27:00,62.6,52.3,29.88,SSW,200,0.0,1.0,69,0.00,,,0.00,VWS V14.01,2013-08-14 00:27:00,
2013-08-13 20:32:00,62.2,52.3,29.88,South,180,0.0,1.0,70,0.00,,,0.00,VWS V14.01,2013-08-14 00:32:00,
2013-08-13 20:37:00,61.7,52.2,29.88,South,180,0.0,1.0,71,0.00,,,0.00,VWS V14.01,2013-08-14 00:37:00,
2013-08-13 20:42:00,61.3,52.2,29.88,South,180,0.0,1.0,72,0.00,,,0.00,VWS V14.01,2013-08-14 00:42:00,
2013-08-13 20:47:00,60.8,51.7,29.88,South,180,0.0,1.0,72,0.00,,,0.00,VWS V14.01,2013-08-14 00:47:00,
2013-08-13 20:52:00,60.3,52.0,29.88,South,180,0.0,1.0,74,0.00,,,0.00,VWS V14.01,2013-08-14 00:52:00,
2013-08-13 20:57:00,59.9,52.0,29.88,South,181,0.0,1.0,75,0.00,,,0.00,VWS V14.01,2013-08-14 00:57:00,
2013-08-13 21:02:00,59.5,51.9,29.88,South,180,0.0,1.0,76,0.00,,,0.00,VWS V14.01,2013-08-14 01:02:00,
2013-08-13 21:07:00,59.2,52.0,29.88,South,181,0.0,0.0,77,0.00,,,0.00,VWS V14.01,2013-08-14 01:07:00,
2013-08-13 21:12:00,59.0,51.8,29.88,South,181,0.0,0.0,77,0.00,,,0.00,VWS V14.01,2013-08-14 01:12:00,
2013-08-13 21:17:00,58.7,51.5,29.89,South,180,0.0,0.0,77,0.00,,,0.00,VWS V14.01,2013-08-14 01:17:00,
2013-08-13 21:22:00,58.5,51.7,29.89,South,180,0.0,0.0,78,0.00,,,0.00,VWS V14.01,2013-08-14 01:22:00,
2013-08-13 21:27:00,58.4,51.6,29.89,South,180,0.0,0.0,78,0.00,,,0.00,VWS V14.01,2013-08-14 01:27:00,
2013-08-13 21:32:00,58.2,51.4,29.89,South,180,0.0,0.0,78,0.00,,,0.00,VWS V14.01,2013-08-14 01:32:00,
2013-08-13 21:37:00,57.9,51.1,29.89,South,180,0.0,0.0,78,0.00,,,0.00,VWS V14.01,2013-08-14 01:37:00,
2013-08-13 21:42:00,57.5,51.0,29.90,South,180,0.0,0.0,79,0.00,,,0.00,VWS V14.01,2013-08-14 01:42:00,
2013-08-13 21:47:00,57.3,51.2,29.90,South,180,0.0,0.0,80,0.00,,,0.00,VWS V14.01,2013-08-14 01:47:00,
2013-08-13 21:52:00,57.2,51.1,29.90,South,181,0.0,0.0,80,0.00,,,0.00,VWS V14.01,2013-08-14 01:52:00,
2013-08-13 21:57:00,57.0,51.2,29.90,South,180,0.0,0.0,81,0.00,,,0.00,VWS V14.01,2013-08-14 01:57:00,
2013-08-13 22:02:00,56.8,51.0,29.90,South,180,0.0,0.0,81,0.00,,,0.00,VWS V14.01,2013-08-14 02:02:00,
2013-08-13 22:07:00,56.6,51.2,29.90,South,179,0.0,0.0,82,0.00,,,0.00,VWS V14.01,2013-08-14 02:07:00,
2013-08-13 22:12:00,56.6,51.2,29.90,South,181,0.0,0.0,82,0.00,,,0.00,VWS V14.01,2013-08-14 02:12:00,
2013-08-13 22:17:00,56.7,51.3,29.90,South,180,0.0,0.0,82,0.00,,,0.00,VWS V14.01,2013-08-14 02:17:00,
2013-08-13 22:22:00,56.7,51.3,29.91,South,180,0.0,0.0,82,0.00,,,0.00,VWS V14.01,2013-08-14 02:22:00,
2013-08-13 22:27:00,56.6,50.8,29.91,South,180,0.0,0.0,81,0.00,,,0.00,VWS V14.01,2013-08-14 02:27:00,
2013-08-13 22:32:00,56.5,51.1,29.91,South,180,0.0,0.0,82,0.00,,,0.00,VWS V14.01,2013-08-14 02:32:00,
2013-08-13 22:37:00,56.4,51.0,29.91,South,181,0.0,0.0,82,0.00,,,0.00,VWS V14.01,2013-08-14 02:37:00,
2013-08-13 22:42:00,56.3,50.9,29.91,South,181,0.0,0.0,82,0.00,,,0.00,VWS V14.01,2013-08-14 02:42:00,
2013-08-13 22:47:00,56.2,51.1,29.91,South,181,0.0,0.0,83,0.00,,,0.00,VWS V14.01,2013-08-14 02:47:00,
2013-08-13 22:52:00,56.0,50.9,29.91,South,181,0.0,0.0,83,0.00,,,0.00,VWS V14.01,2013-08-14 02:52:00,
2013-08-13 22:57:00,55.8,50.7,29.91,South,180,0.0,0.0,83,0.00,,,0.00,VWS V14.01,2013-08-14 02:57:00,
2013-08-13 23:02:00,55.7,51.0,29.91,South,180,0.0,0.0,84,0.00,,,0.00,VWS V14.01,2013-08-14 03:02:00,
2013-08-13 23:07:00,55.5,51.1,29.91,South,181,0.0,0.0,85,0.00,,,0.00,VWS V14.01,2013-08-14 03:07:00,
2013-08-13 23:12:00,55.3,50.9,29.91,South,180,0.0,0.0,85,0.00,,,0.00,VWS V14.01,2013-08-14 03:12:00,
2013-08-13 23:17:00,55.0,50.6,29.91,South,181,0.0,0.0,85,0.00,,,0.00,VWS V14.01,2013-08-14 03:17:00,
2013-08-13 23:22:00,54.7,50.6,29.91,South,180,0.0,0.0,86,0.00,,,0.00,VWS V14.01,2013-08-14 03:22:00,
2013-08-13 23:27:00,54.6,50.5,29.91,South,180,0.0,0.0,86,0.00,,,0.00,VWS V14.01,2013-08-14 03:27:00,
2013-08-13 23:32:00,54.3,50.5,29.91,South,181,0.0,0.0,87,0.00,,,0.00,VWS V14.01,2013-08-14 03:32:00,
2013-08-13 23:37:00,54.1,50.3,29.92,South,180,0.0,0.0,87,0.00,,,0.00,VWS V14.01,2013-08-14 03:37:00,
2013-08-13 23:42:00,53.9,50.4,29.92,South,180,0.0,0.0,88,0.00,,,0.00,VWS V14.01,2013-08-14 03:42:00,
2013-08-13 23:47:00,53.7,50.2,29.92,South,180,0.0,0.0,88,0.00,,,0.00,VWS V14.01,2013-08-14 03:47:00,
2013-08-13 23:52:00,53.7,50.2,29.92,South,180,0.0,0.0,88,0.00,,,0.00,VWS V14.01,2013-08-14 03:52:00,
2013-08-13 23:57:00,53.6,50.1,29.92,South,181,0.0,0.0,88,0.00,,,0.00,VWS V14.01,2013-08-14 03:57:00,